Location: Black Skies Observatory
(44.7549°N, 79.7179°W)
Time: 13:27:39
(UTC-05:00)

Envisat - Pass Details

Date: 05 November 2020
Orbit: 764 x 766 km, 98.1° (Epoch: 01 December)

Event Time Altitude Azimuth Distance (km) Brightness Sun altitude
Rises 04:46:43 0° 34° (NE) 3,240 6.7 -24.5°
Reaches altitude 10° 04:50:49 10° 67° (ENE) 2,306 6.4 -23.8°
Maximum altitude 04:52:32 12° 87° (E) 2,192 6.4 -23.4°
Drops below altitude 10° 04:54:15 10° 107° (ESE) 2,300 6.5 -23.1°
Sets 04:58:17 0° 139° (SE) 3,218 6.8 -22.4°
